FW9002 Weather Reports


time (UTC)temp
C
wind
direction
speed
KPH
gust
KPH
rain 1hr
cm
rain 24hr
cm
rain mn
cm
humidity
%
barometer
mb
20260906012757 33 298 8.0 9.7 0.00 0.00 0.00 33 1011.5
20260906012251 33 272 8.0 11.3 0.00 0.00 0.00 32 1011.4
20260906011747 33 305 4.8 11.3 0.00 0.00 0.00 32 1011.3
20260906011246 33 316 4.8 8.0 0.00 0.00 0.00 32 1011.5
20260906010742 33 287 3.2 3.2 0.00 0.00 0.00 32 1011.5
20260906010238 34 295 8.0 9.7 0.00 0.00 0.00 32 1011.4
20260906005733 34 301 3.2 4.8 0.00 0.00 0.00 32 1011.5
20260906005232 35 345 6.4 11.3 0.00 0.00 0.00 31 1011.1
20260906004731 35 290 3.2 3.2 0.00 0.00 0.00 32 1011.1
20260906004227 35 300 6.4 9.7 0.00 0.00 0.00 31 1011.1
20260906003722 35 274 3.2 3.2 0.00 0.00 0.00 31 1011.2
20260906003218 35 288 8.0 12.9 0.00 0.00 0.00 31 1011.4
20260906002717 35 271 4.8 8.0 0.00 0.00 0.00 31 1011.5
20260906002212 35 300 8.0 11.3 0.00 0.00 0.00 30 1011.2
20260906001708 35 291 8.0 11.3 0.00 0.00 0.00 30 1011.3
20260906001207 35 292 6.4 8.0 0.00 0.00 0.00 30 1011.3
20260906000703 35 340 11.3 16.1 0.00 0.00 0.00 30 1011.1
20260906000158 36 276 8.0 14.5 0.00 0.00 0.00 30 1011.1
20260905235657 36 288 4.8 4.8 0.00 0.00 0.00 30 1011.1
20260905235152 36 319 8.0 11.3 0.00 0.00 0.00 30 1011.0
20260905234647 36 283 8.0 12.9 0.00 0.00 0.00 29 1011.1
20260905234143 36 276 4.8 4.8 0.00 0.00 0.00 29 1011.4
20260905233638 36 314 6.4 8.0 0.00 0.00 0.00 29 1011.1
20260905233137 36 268 4.8 4.8 0.00 0.00 0.00 29 1011.2
20260905232633 36 303 6.4 8.0 0.00 0.00 0.00 29 1011.3
20260905232128 36 291 8.0 11.3 0.00 0.00 0.00 29 1011.3
20260905231623 36 282 6.4 8.0 0.00 0.00 0.00 29 1011.5
20260905231120 37 269 6.4 9.7 0.00 0.00 0.00 28 1011.4
20260905230615 36 296 4.8 8.0 0.00 0.00 0.00 28 1011.5
20260905230113 36 306 8.0 9.7 0.00 0.00 0.00 28 1011.4
20260905225613 36 293 4.8 8.0 0.00 0.00 0.00 28 1011.4
20260905225108 36 277 4.8 4.8 0.00 0.00 0.00 29 1011.4
20260905224608 36 262 4.8 4.8 0.00 0.00 0.00 28 1011.3
20260905224107 36 299 6.4 9.7 0.00 0.00 0.00 29 1011.5
20260905223605 36 248 4.8 4.8 0.00 0.00 0.00 28 1011.5
20260905223101 36 295 4.8 9.7 0.00 0.00 0.00 29 1011.3
20260905222600 36 306 4.8 8.0 0.00 0.00 0.00 29 1011.7
20260905222055 36 288 6.4 11.3 0.00 0.00 0.00 29 1011.8
20260905221552 36 309 11.3 16.1 0.00 0.00 0.00 29 1011.8
20260905221048 36 324 4.8 3.2 0.00 0.00 0.00 29 1011.8
20260905220543 37 276 6.4 9.7 0.00 0.00 0.00 28 1011.9
20260905220039 36 295 1.6 3.2 0.00 0.00 0.00 29 1011.8
20260905215538 36 303 6.4 9.7 0.00 0.00 0.00 28 1012.0
20260905215035 36 298 4.8 9.7 0.00 0.00 0.00 29 1012.0
20260905214530 36 307 4.8 8.0 0.00 0.00 0.00 29 1011.9
20260905214025 36 319 8.0 11.3 0.00 0.00 0.00 29 1012.4
20260905213521 36 315 4.8 4.8 0.00 0.00 0.00 28 1012.2
20260905213016 36 302 4.8 8.0 0.00 0.00 0.00 30 1012.2
20260905212511 36 301 9.7 11.3 0.00 0.00 0.00 29 1012.5
20260905212010 36 300 3.2 3.2 0.00 0.00 0.00 29 1012.5
20260905211506 36 317 8.0 9.7 0.00 0.00 0.00 29 1012.5
20260905211001 36 21 3.2 3.2 0.00 0.00 0.00 29 1012.6
20260905210457 36 306 8.0 11.3 0.00 0.00 0.00 29 1012.8
20260905205956 36 24 4.8 4.8 0.00 0.00 0.00 30 1012.7
20260905205451 36 357 1.6 3.2 0.00 0.00 0.00 29 1012.8
20260905204949 36 321 4.8 4.8 0.00 0.00 0.00 29 1012.9
20260905204446 36 358 3.2 3.2 0.00 0.00 0.00 31 1012.9
20260905203945 36 7 4.8 4.8 0.00 0.00 0.00 30 1013.1
20260905203440 36 335 4.8 8.0 0.00 0.00 0.00 30 1013.0
20260905202936 35 9 3.2 3.2 0.00 0.00 0.00 31 1013.0
20260905202431 36 216 3.2 3.2 0.00 0.00 0.00 30 1013.4
20260905201926 36 269 3.2 4.8 0.00 0.00 0.00 30 1013.5
20260905201421 36 308 3.2 3.2 0.00 0.00 0.00 31 1013.2
20260905200921 36 300 8.0 9.7 0.00 0.00 0.00 30 1013.5
20260905200417 36 300 1.6 1.6 0.00 0.00 0.00 30 1013.5
20260905195915 36 352 4.8 4.8 0.00 0.00 0.00 30 1013.8
20260905195411 36 304 4.8 4.8 0.00 0.00 0.00 31 1013.6
20260905194906 36 32 4.8 8.0 0.00 0.00 0.00 30 1013.8
20260905194406 35 291 3.2 4.8 0.00 0.00 0.00 32 1013.9
20260905193906 35 298 8.0 9.7 0.00 0.00 0.00 31 1013.8
20260905193401 35 274 4.8 4.8 0.00 0.00 0.00 32 1013.8
20260905192856 35 250 1.6 3.2 0.00 0.00 0.00 31 1013.6
20260905192351 35 325 6.4 9.7 0.00 0.00 0.00 33 1014.0
20260905191851 35 136 1.6 1.6 0.00 0.00 0.00 33 1014.1
20260905191349 35 294 3.2 4.8 0.00 0.00 0.00 34 1014.3
20260905190844 35 322 3.2 3.2 0.00 0.00 0.00 34 1014.4
20260905190343 35 352 1.6 1.6 0.00 0.00 0.00 33 1014.4
20260905185841 35 188 4.8 3.2 0.00 0.00 0.00 34 1014.2
20260905185337 34 258 9.7 11.3 0.00 0.00 0.00 35 1014.4
20260905184836 34 278 1.6 1.6 0.00 0.00 0.00 37 1014.4
20260905184335 34 285 4.8 4.8 0.00 0.00 0.00 36 1014.7
20260905183834 35 246 4.8 4.8 0.00 0.00 0.00 35 1014.6
20260905183329 35 278 3.2 3.2 0.00 0.00 0.00 36 1014.8
20260905182824 33 158 1.6 0.0 0.00 0.00 0.00 35 1014.9
20260905182323 33 261 6.4 8.0 0.00 0.00 0.00 36 1014.8
20260905181819 34 315 3.2 4.8 0.00 0.00 0.00 36 1015.0
20260905181318 33 253 4.8 3.2 0.00 0.00 0.00 35 1014.9
20260905180818 33 272 4.8 4.8 0.00 0.00 0.00 36 1015.2
20260905180313 33 214 3.2 3.2 0.00 0.00 0.00 36 1015.2
20260905175808 33 352 0.0 0.0 0.00 0.00 0.00 37 1014.9
20260905175306 33 299 6.4 8.0 0.00 0.00 0.00 36 1015.3
20260905174758 33 297 4.8 8.0 0.00 0.00 0.00 37 1015.2
20260905174253 33 259 1.6 1.6 0.00 0.00 0.00 38 1015.2
20260905173749 34 297 3.2 3.2 0.00 0.00 0.00 38 1015.3
20260905173245 33 89 1.6 1.6 0.00 0.00 0.00 39 1015.2
20260905172744 34 277 1.6 1.6 0.00 0.00 0.00 37 1015.3
20260905172243 33 306 1.6 3.2 0.00 0.00 0.00 36 1015.4
20260905171740 32 318 1.6 1.6 0.00 0.00 0.00 40 1015.4
20260905171236 32 32 3.2 3.2 0.00 0.00 0.00 41 1015.5
20260905170732 32 22 1.6 1.6 0.00 0.00 0.00 39 1015.5
20260905170228 32 250 0.0 0.0 0.00 0.00 0.00 39 1015.4
20260905165726 32 229 1.6 1.6 0.00 0.00 0.00 41 1015.7
20260905165217 32 66 0.0 0.0 0.00 0.00 0.00 41 1015.5
20260905164717 32 93 3.2 3.2 0.00 0.00 0.00 42 1015.5
20260905164217 32 221 3.2 3.2 0.00 0.00 0.00 42 1015.6
20260905163712 32 252 4.8 4.8 0.00 0.00 0.00 41 1015.5
20260905163209 32 92 0.0 0.0 0.00 0.00 0.00 43 1015.6
20260905162705 32 119 0.0 0.0 0.00 0.00 0.00 43 1015.4
20260905162204 32 95 3.2 3.2 0.00 0.00 0.00 43 1015.6
20260905161700 32 70 1.6 3.2 0.00 0.00 0.00 43 1015.4
20260905161157 31 102 1.6 1.6 0.00 0.00 0.00 44 1015.5
20260905160656 31 91 0.0 1.6 0.00 0.00 0.00 43 1015.7
20260905160155 31 106 1.6 1.6 0.00 0.00 0.00 45 1015.4
20260905155650 32 85 1.6 1.6 0.00 0.00 0.00 44 1015.4
20260905155149 32 81 1.6 1.6 0.00 0.00 0.00 43 1015.3
20260905154644 32 97 0.0 0.0 0.00 0.00 0.00 43 1015.4
20260905154139 31 111 0.0 0.0 0.00 0.00 0.00 45 1015.5
20260905153635 31 103 0.0 0.0 0.00 0.00 0.00 46 1015.3
20260905153130 31 132 1.6 1.6 0.00 0.00 0.00 46 1015.6
20260905152625 30 120 0.0 0.0 0.00 0.00 0.00 50 1015.8
20260905152120 30 63 0.0 0.0 0.00 0.00 0.00 50 1015.5
20260905151615 29 63 1.6 1.6 0.00 0.00 0.00 51 1015.6
20260905151110 28 105 1.6 1.6 0.00 0.00 0.00 53 1015.3
20260905150606 29 82 3.2 3.2 0.00 0.00 0.00 54 1015.5
20260905150103 29 76 1.6 1.6 0.00 0.00 0.00 53 1015.3
20260905145556 29 76 1.6 1.6 0.00 0.00 0.00 52 1015.6
20260905145056 29 77 0.0 0.0 0.00 0.00 0.00 54 1015.5
20260905144551 28 76 0.0 0.0 0.00 0.00 0.00 55 1015.5
20260905144050 27 76 0.0 0.0 0.00 0.00 0.00 57 1015.5
20260905143550 27 78 1.6 1.6 0.00 0.00 0.00 58 1015.6
20260905143045 27 84 0.0 1.6 0.00 0.00 0.00 59 1015.6
20260905142544 27 87 0.0 0.0 0.00 0.00 0.00 57 1015.5
20260905142039 27 103 1.6 1.6 0.00 0.00 0.00 58 1015.2
20260905141538 26 107 1.6 1.6 0.00 0.00 0.00 60 1015.3
20260905141035 26 114 1.6 1.6 0.00 0.00 0.00 63 1015.3
20260905140530 25 126 1.6 1.6 0.00 0.00 0.00 65 1015.3
20260905140029 25 127 0.0 0.0 0.00 0.00 0.00 65 1015.0
20260905135525 25 126 0.0 0.0 0.00 0.00 0.00 65 1014.9
20260905135019 25 108 1.6 1.6 0.00 0.00 0.00 65 1014.9
20260905134514 25 85 0.0 0.0 0.00 0.00 0.00 66 1014.8
20260905134013 24 85 0.0 0.0 0.00 0.00 0.00 69 1014.7
20260905133508 23 85 1.6 1.6 0.00 0.00 0.00 72 1014.6
20260905133002 23 85 0.0 0.0 0.00 0.00 0.00 73 1014.6
20260905132457 23 85 0.0 0.0 0.00 0.00 0.00 72 1014.5
20260905131951 23 85 0.0 0.0 0.00 0.00 0.00 73 1014.4
20260905131447 23 85 0.0 1.6 0.00 0.00 0.00 74 1014.4
20260905130948 22 85 0.0 0.0 0.00 0.00 0.00 74 1014.3
20260905130441 22 85 0.0 0.0 0.00 0.00 0.00 75 1014.4
20260905125941 22 85 0.0 1.6 0.00 0.00 0.00 76 1014.5
20260905125436 22 85 0.0 0.0 0.00 0.00 0.00 75 1014.3
20260905124932 23 85 0.0 0.0 0.00 0.00 0.00 75 1014.4
20260905124428 23 85 0.0 0.0 0.00 0.00 0.00 74 1014.3
20260905123928 23 85 0.0 0.0 0.00 0.00 0.00 73 1014.1
20260905123425 23 85 0.0 0.0 0.00 0.00 0.00 73 1014.1
20260905122920 23 85 0.0 0.0 0.00 0.00 0.00 73 1014.2
20260905122419 22 85 0.0 0.0 0.00 0.00 0.00 74 1014.2
20260905121915 23 85 0.0 0.0 0.00 0.00 0.00 73 1014.0
20260905121411 23 85 0.0 0.0 0.00 0.00 0.00 72 1014.1
20260905120910 23 85 0.0 0.0 0.00 0.00 0.00 71 1014.0
20260905120410 23 85 0.0 0.0 0.00 0.00 0.00 71 1013.9
20260905115905 23 85 0.0 0.0 0.00 0.00 0.00 70 1014.1
20260905115404 23 85 0.0 0.0 0.00 0.00 0.00 70 1014.1
20260905114859 23 85 0.0 1.6 0.00 0.00 0.00 71 1013.9
20260905114358 23 84 0.0 0.0 0.00 0.00 0.00 72 1013.9
20260905113858 23 84 0.0 0.0 0.00 0.00 0.00 71 1014.1
20260905113353 23 84 0.0 0.0 0.00 0.00 0.00 70 1013.9
20260905112848 23 84 0.0 0.0 0.00 0.00 0.00 70 1013.9
20260905112344 23 84 0.0 0.0 0.00 0.00 0.00 70 1014.0
20260905111839 23 84 0.0 0.0 0.00 0.00 0.00 70 1014.1
20260905111338 23 84 0.0 0.0 0.00 0.00 0.00 69 1014.2
20260905110838 23 84 0.0 0.0 0.00 0.00 0.00 69 1014.1
20260905110332 23 84 0.0 0.0 0.00 0.00 0.00 69 1014.0
20260905105828 23 84 0.0 1.6 0.00 0.00 0.00 69 1014.0
20260905105327 23 84 0.0 0.0 0.00 0.00 0.00 69 1014.0
20260905104821 23 84 0.0 0.0 0.00 0.00 0.00 70 1013.8
20260905104318 23 84 0.0 0.0 0.00 0.00 0.00 70 1014.1
20260905103817 23 84 0.0 0.0 0.00 0.00 0.00 69 1014.0
20260905103312 24 84 0.0 0.0 0.00 0.00 0.00 68 1014.0
20260905102809 24 84 0.0 0.0 0.00 0.00 0.00 67 1014.0
20260905102306 24 84 0.0 0.0 0.00 0.00 0.00 67 1014.1
20260905101804 24 84 0.0 0.0 0.00 0.00 0.00 67 1014.1
20260905101303 24 84 0.0 0.0 0.00 0.00 0.00 67 1013.9
20260905100757 24 84 0.0 1.6 0.00 0.00 0.00 67 1014.0
20260905100253 24 84 0.0 0.0 0.00 0.00 0.00 67 1014.1
20260905095753 24 84 0.0 0.0 0.00 0.00 0.00 67 1014.0
20260905095247 25 84 0.0 0.0 0.00 0.00 0.00 67 1014.2
20260905094742 25 84 0.0 0.0 0.00 0.00 0.00 66 1014.3
20260905094238 25 84 0.0 0.0 0.00 0.00 0.00 66 1013.9
20260905093736 25 84 0.0 0.0 0.00 0.00 0.00 66 1013.9
20260905093232 25 84 0.0 0.0 0.00 0.00 0.00 65 1014.0
20260905092728 25 84 0.0 0.0 0.00 0.00 0.00 65 1014.1
20260905092223 25 84 1.6 1.6 0.00 0.00 0.00 65 1014.1
20260905091722 25 84 1.6 1.6 0.00 0.00 0.00 65 1014.1
20260905091218 25 85 1.6 1.6 0.00 0.00 0.00 65 1014.0
20260905090717 25 86 1.6 1.6 0.00 0.00 0.00 65 1014.2
20260905090213 25 86 0.0 0.0 0.00 0.00 0.00 64 1014.0
20260905085711 25 87 0.0 0.0 0.00 0.00 0.00 64 1013.8
20260905085206 25 86 0.0 0.0 0.00 0.00 0.00 64 1014.2
20260905084701 25 87 0.0 0.0 0.00 0.00 0.00 64 1014.0
20260905084201 25 86 1.6 0.0 0.00 0.00 0.00 64 1014.1
20260905083655 25 86 0.0 0.0 0.00 0.00 0.00 63 1014.3
20260905083152 25 86 0.0 0.0 0.00 0.00 0.00 63 1014.1
20260905082647 25 96 0.0 0.0 0.00 0.00 0.00 63 1014.1
20260905082142 25 97 0.0 0.0 0.00 0.00 0.00 64 1013.9
20260905081637 25 97 0.0 0.0 0.00 0.00 0.00 63 1014.2
20260905081132 25 96 0.0 0.0 0.00 0.00 0.00 62 1014.1
20260905080627 26 97 0.0 0.0 0.00 0.00 0.00 60 1014.1
20260905080121 26 96 0.0 0.0 0.00 0.00 0.00 60 1014.4
20260905075620 26 96 0.0 0.0 0.00 0.00 0.00 59 1014.2
20260905075120 26 96 0.0 0.0 0.00 0.00 0.00 58 1014.2
20260905074619 26 96 0.0 0.0 0.00 0.00 0.00 59 1014.3
20260905074115 26 96 0.0 0.0 0.00 0.00 0.00 58 1014.4
20260905073610 26 96 0.0 0.0 0.00 0.00 0.00 57 1014.2
20260905073106 26 96 0.0 0.0 0.00 0.00 0.00 57 1014.3
20260905072605 26 94 1.6 1.6 0.00 0.00 0.00 57 1014.3
20260905072101 26 95 1.6 1.6 0.00 0.00 0.00 56 1014.1
20260905071557 26 95 0.0 0.0 0.00 0.00 0.00 56 1014.4
20260905071057 27 95 0.0 0.0 0.00 0.00 0.00 56 1014.3
20260905070553 27 95 0.0 0.0 0.00 0.00 0.00 55 1014.3
20260905070048 27 95 0.0 0.0 0.00 0.00 0.00 55 1014.1
20260905065546 27 94 0.0 0.0 0.00 0.00 0.00 55 1014.1
20260905065042 27 94 0.0 0.0 0.00 0.00 0.00 54 1014.1
20260905064542 27 101 1.6 1.6 0.00 0.00 0.00 53 1014.3
20260905064037 27 101 0.0 0.0 0.00 0.00 0.00 53 1014.2
20260905063536 27 89 1.6 1.6 0.00 0.00 0.00 53 1014.1
20260905063032 27 101 0.0 0.0 0.00 0.00 0.00 53 1013.8
20260905062532 27 101 1.6 1.6 0.00 0.00 0.00 53 1014.1
20260905062027 27 61 1.6 1.6 0.00 0.00 0.00 53 1014.0
20260905061522 28 116 0.0 0.0 0.00 0.00 0.00 52 1014.0
20260905061021 28 187 3.2 3.2 0.00 0.00 0.00 51 1013.9
20260905060517 28 182 3.2 3.2 0.00 0.00 0.00 51 1014.0
20260905060013 28 183 0.0 0.0 0.00 0.00 0.00 51 1014.0
20260905055511 28 157 1.6 1.6 0.00 0.00 0.00 51 1014.1
20260905055006 28 170 3.2 3.2 0.00 0.00 0.00 51 1014.0
20260905054502 28 152 1.6 1.6 0.00 0.00 0.00 51 1013.8
20260905053957 28 134 1.6 1.6 0.00 0.00 0.00 51 1014.0
20260905053451 28 148 1.6 1.6 0.00 0.00 0.00 51 1013.8
20260905052948 28 150 0.0 0.0 0.00 0.00 0.00 51 1013.9
20260905052447 28 138 1.6 1.6 0.00 0.00 0.00 51 1013.6
20260905051946 28 145 0.0 0.0 0.00 0.00 0.00 51 1013.8
20260905051441 28 129 0.0 0.0 0.00 0.00 0.00 51 1013.6
20260905050939 28 127 0.0 0.0 0.00 0.00 0.00 51 1013.8
20260905050435 28 126 1.6 1.6 0.00 0.00 0.00 51 1013.8
20260905045930 28 114 1.6 1.6 0.00 0.00 0.00 50 1013.5
20260905045425 28 115 0.0 0.0 0.00 0.00 0.00 49 1013.4
20260905044921 28 115 0.0 0.0 0.00 0.00 0.00 48 1013.3
20260905044410 28 121 0.0 0.0 0.00 0.00 0.00 47 1013.3
20260905043909 28 121 0.0 0.0 0.00 0.00 0.00 46 1013.5
20260905043404 29 121 0.0 0.0 0.00 0.00 0.00 45 1013.2
20260905042903 29 234 1.6 1.6 0.00 0.00 0.00 44 1013.4
20260905042358 29 234 0.0 0.0 0.00 0.00 0.00 44 1013.5
20260905041853 29 234 0.0 0.0 0.00 0.00 0.00 44 1013.3
20260905041349 30 235 0.0 0.0 0.00 0.00 0.00 43 1013.5
20260905040844 30 234 0.0 0.0 0.00 0.00 0.00 43 1013.4
20260905040343 30 230 0.0 0.0 0.00 0.00 0.00 41 1013.4
20260905035842 30 230 0.0 0.0 0.00 0.00 0.00 40 1013.3
20260905035338 30 229 0.0 0.0 0.00 0.00 0.00 40 1013.2
20260905034834 30 229 0.0 0.0 0.00 0.00 0.00 40 1013.4
20260905034330 30 272 0.0 0.0 0.00 0.00 0.00 40 1013.2
20260905033828 30 273 0.0 0.0 0.00 0.00 0.00 39 1013.2
20260905033324 30 313 0.0 0.0 0.00 0.00 0.00 39 1013.3
20260905032823 30 256 3.2 3.2 0.00 0.00 0.00 40 1012.9
20260905032319 30 311 0.0 0.0 0.00 0.00 0.00 39 1013.0
20260905031814 30 316 0.0 0.0 0.00 0.00 0.00 39 1013.0
20260905031310 30 316 0.0 0.0 0.00 0.00 0.00 39 1012.9
20260905030805 30 316 0.0 0.0 0.00 0.00 0.00 37 1012.9
20260905030300 30 316 0.0 0.0 0.00 0.00 0.00 37 1012.7
20260905025759 31 316 0.0 0.0 0.00 0.00 0.00 36 1012.5
20260905025255 31 316 0.0 0.0 0.00 0.00 0.00 36 1012.7
20260905024751 31 316 0.0 0.0 0.00 0.00 0.00 35 1012.6
20260905024246 31 316 0.0 0.0 0.00 0.00 0.00 34 1012.5
20260905023741 31 316 0.0 0.0 0.00 0.00 0.00 34 1012.2
20260905023236 31 316 0.0 0.0 0.00 0.00 0.00 34 1011.9
20260905022735 31 317 0.0 0.0 0.00 0.00 0.00 34 1012.0
20260905022231 31 325 0.0 0.0 0.00 0.00 0.00 34 1011.9
20260905021725 31 325 0.0 0.0 0.00 0.00 0.00 34 1012.0
20260905021220 31 325 0.0 0.0 0.00 0.00 0.00 33 1012.0
20260905020715 31 325 0.0 0.0 0.00 0.00 0.00 33 1011.8
20260905020210 31 334 0.0 0.0 0.00 0.00 0.00 33 1012.0
20260905015709 32 339 0.0 0.0 0.00 0.00 0.00 32 1011.9
20260905015209 32 319 0.0 0.0 0.00 0.00 0.00 32 1011.9
20260905014707 32 11 0.0 0.0 0.00 0.00 0.00 32 1011.8
20260905014203 32 11 1.6 1.6 0.00 0.00 0.00 31 1011.8
20260905013659 32 3 1.6 1.6 0.00 0.00 0.00 30 1011.6